Total_Precipitation_Accumulation
0.75 0.52 0.56 0.52 0.45 0.41 0.41 0.49 0.57 0.55 0.54 0.57 0.59 0.63 0.59 0.59 0.57 0.58 0.67 0.79 0.96 1.13 1.27 1.41 1.61 1.80 1.95 2.21 2.05 1.77 1.76 1.94 2.09 2.40 2.91 3.19 3.25 3.22 3.26 3.28 3.23 2.89 2.92
0.56 0.46 0.52 0.49 0.48 0.47 0.47 0.55 0.51 0.46 0.49 0.52 0.52 0.62 0.63 0.62 0.60 0.62 0.66 0.82 1.04 1.27 1.35 1.43 1.54 1.84 1.96 2.12 2.12 1.85 1.74 1.90 2.05 2.46 3.11 3.66 3.81 3.67 3.56 3.60 3.33 3.11 2.99
0.46 0.45 0.49 0.55 0.53 0.53 0.50 0.55 0.50 0.46 0.51 0.57 0.56 0.63 0.71 0.65 0.64 0.63 0.70 0.87 1.16 1.35 1.39 1.48 1.64 1.82 1.97 2.00 2.01 1.88 1.86 2.02 2.19 2.63 3.43 3.62 3.76 3.96 3.97 3.79 3.30 3.08 2.75
0.41 0.46 0.47 0.61 0.63 0.59 0.54 0.54 0.55 0.54 0.54 0.61 0.68 0.68 0.75 0.71 0.70 0.74 0.81 0.92 1.19 1.39 1.58 1.62 1.67 1.85 1.96 1.84 1.68 1.85 2.07 2.18 2.45 2.88 3.32 3.30 3.21 3.82 3.83 3.56 3.15 2.95 2.64
0.48 0.50 0.54 0.62 0.68 0.74 0.72 0.70 0.70 0.67 0.67 0.70 0.77 0.82 0.92 0.88 0.81 0.85 0.91 0.99 1.20 1.34 1.61 1.86 1.86 1.86 1.80 1.69 1.63 1.87 2.39 2.42 2.71 2.93 3.11 3.45 3.62 3.91 3.59 3.41 2.98 2.83 2.72
0.60 0.63 0.57 0.77 0.88 0.93 0.91 0.85 0.84 0.80 0.80 0.85 0.89 0.89 0.97 0.98 0.97 1.03 1.08 1.14 1.34 1.47 1.58 1.84 2.08 2.11 1.95 2.00 1.85 1.99 2.47 2.71 2.77 2.83 3.21 3.79 3.93 4.03 3.69 3.47 3.07 2.92 2.72
0.88 0.87 0.72 0.79 0.83 0.91 0.92 0.95 0.91 0.88 0.87 0.95 1.00 0.97 0.98 0.96 0.97 1.14 1.32 1.38 1.51 1.60 1.64 1.74 1.93 2.09 2.07 2.31 2.32 2.30 2.76 2.89 2.73 2.90 3.29 3.62 3.74 3.83 3.75 3.76 3.34 2.94 2.68
1.05 1.00 0.79 0.82 0.82 0.95 1.01 1.03 0.99 0.98 0.98 1.06 1.12 1.09 1.05 1.03 1.08 1.25 1.44 1.58 1.65 1.63 1.64 1.78 1.88 2.07 2.34 2.52 2.61 2.60 2.74 2.76 2.50 2.79 3.15 3.31 3.23 3.36 3.67 3.76 3.43 2.98 2.66
1.10 1.14 0.98 1.00 0.99 1.06 1.14 1.16 1.24 1.17 1.17 1.20 1.20 1.30 1.22 1.19 1.32 1.46 1.53 1.64 1.68 1.69 1.61 1.64 1.81 1.85 2.17 2.37 2.49 2.55 2.57 2.78 2.62 2.63 2.82 3.33 3.15 3.38 3.69 3.60 3.33 3.00 2.67
1.81 1.86 1.63 1.49 1.45 1.37 1.32 1.25 1.35 1.33 1.35 1.45 1.38 1.39 1.41 1.42 1.47 1.60 1.60 1.70 1.67 1.61 1.63 1.64 1.77 1.83 1.91 1.95 1.92 2.08 2.24 2.39 2.46 2.47 2.90 3.17 3.29 3.86 4.03 3.73 3.46 3.17 2.89
2.59 2.67 2.28 1.86 1.71 1.92 1.77 1.43 1.60 1.52 1.47 1.52 1.51 1.52 1.60 1.86 2.05 2.10 1.87 2.05 2.01 1.86 1.79 1.82 1.85 1.84 1.80 1.83 1.87 1.94 1.91 1.70 2.24 2.71 2.88 3.19 3.32 3.93 4.30 3.98 3.67 3.37 3.03
2.89 2.89 2.58 2.09 2.21 2.46 2.15 2.06 2.02 1.80 1.73 1.66 1.79 1.81 1.99 2.55 2.73 2.38 2.44 2.40 2.42 2.31 2.22 2.21 2.19 2.05 1.84 1.71 1.87 1.93 1.62 1.51 1.99 2.62 2.97 3.36 3.68 4.07 4.18 3.91 3.85 3.73 3.34
2.99 2.71 2.37 2.30 2.37 2.64 2.67 2.56 2.47 2.45 2.45 2.46 2.52 2.53 2.76 2.92 2.77 2.63 2.90 2.74 2.69 2.60 2.54 2.58 2.42 2.10 2.03 2.04 1.99 1.89 1.74 1.78 2.10 2.42 2.90 3.37 3.67 4.06 4.33 4.00 3.88 4.04 3.74
2.93 2.86 2.80 2.83 2.72 2.96 3.38 3.39 3.18 3.10 3.05 2.98 2.93 2.80 3.14 3.31 3.23 3.23 3.30 3.22 3.36 3.35 3.31 2.95 2.71 2.47 2.40 2.19 1.97 1.91 1.99 2.04 2.25 2.69 3.16 3.25 3.48 3.79 4.17 4.25 4.16 4.16 4.00
3.24 3.16 3.13 3.22 3.22 3.36 3.84 4.09 3.81 3.68 3.49 3.38 3.29 3.29 3.35 3.36 3.40 3.56 3.52 3.72 3.68 3.60 3.41 3.18 2.77 2.74 2.59 2.44 2.28 2.10 2.18 2.35 2.43 2.78 3.01 3.15 3.26 3.52 4.05 4.55 4.53 4.42 4.29
3.54 3.35 3.27 3.33 3.32 3.43 3.70 3.97 4.04 3.98 4.04 3.94 3.66 3.61 3.63 3.60 3.68 3.73 3.74 3.72 3.56 3.40 3.45 3.39 3.18 3.13 2.93 2.74 2.54 2.48 2.47 2.48 2.60 2.69 2.90 3.19 3.02 3.12 3.69 4.34 4.78 4.71 4.64
3.82 3.80 3.63 3.61 3.76 3.71 3.74 3.83 3.81 3.85 4.15 4.20 4.18 4.15 3.92 3.79 3.82 3.83 3.87 3.76 3.60 3.54 3.64 3.56 3.50 3.44 3.26 3.10 3.00 2.85 2.78 2.66 2.62 2.69 2.95 3.20 3.17 3.20 3.45 3.87 4.39 4.68 4.77
4.25 4.23 3.84 3.50 3.81 3.91 3.96 3.98 4.00 4.04 4.27 4.29 4.23 4.38 4.14 4.17 4.06 3.96 3.77 3.60 3.56 3.55 3.79 3.84 3.74 3.77 3.62 3.46 3.44 3.11 2.99 2.96 2.75 2.83 2.92 3.05 3.43 3.51 3.60 3.62 3.88 4.34 4.69
4.76 4.55 4.02 3.75 3.87 4.05 4.05 4.18 4.38 4.55 4.56 4.46 4.33 4.43 4.30 4.34 4.28 4.19 4.16 4.09 3.94 4.03 4.06 3.73 3.83 3.96 3.98 3.87 3.47 3.29 3.11 3.02 2.91 2.82 2.80 2.88 3.23 3.50 3.61 3.65 3.77 3.94 4.30
4.86 4.77 4.35 4.16 4.40 4.41 4.34 4.37 4.49 4.62 4.65 4.76 4.77 4.72 4.60 4.58 4.67 4.87 4.87 4.72 4.50 4.41 4.39 4.44 4.43 4.16 3.97 3.93 3.56 3.44 3.27 3.00 2.90 2.86 2.71 2.76 2.97 2.97 3.13 3.26 3.53 3.60 3.78
4.12 4.20 4.39 4.44 4.54 4.58 4.61 4.62 4.78 4.95 4.97 4.95 5.07 5.11 5.00 4.95 5.12 5.51 5.56 5.41 5.05 4.73 4.57 4.58 4.61 4.40 4.08 3.90 3.96 3.77 3.37 3.02 2.92 2.80 2.77 2.80 2.69 2.73 2.95 3.13 3.19 3.18 3.25
3.94 4.13 4.37 4.40 4.57 4.86 5.28 5.81 6.08 6.21 6.05 5.85 5.75 5.71 5.57 5.48 5.62 5.74 5.87 5.56 5.19 4.99 4.72 4.48 4.47 4.33 4.03 3.97 4.06 4.16 3.71 3.41 2.88 2.48 2.58 2.63 2.67 2.74 2.78 2.78 2.85 2.95 2.96
3.56 3.91 4.17 4.52 4.90 5.42 6.11 6.94 7.28 7.06 6.60 6.37 6.08 6.02 5.76 5.53 5.52 5.70 5.48 5.24 5.04 4.81 4.59 4.40 4.43 4.41 4.06 3.90 4.02 4.30 3.99 3.59 3.18 2.82 2.56 2.48 2.61 2.69 2.74 2.79 2.70 2.79 2.83
3.18 3.66 4.14 4.68 5.25 5.94 6.60 7.06 7.30 7.20 6.93 6.62 6.15 5.76 5.37 5.05 4.88 4.82 4.74 4.52 4.44 4.30 4.15 3.93 4.00 4.12 4.06 3.79 3.73 3.54 3.48 3.39 3.35 3.04 2.75 2.57 2.57 2.62 2.66 2.59 2.60 2.73 2.81
3.09 3.58 4.10 4.59 5.29 5.80 6.35 6.77 7.06 7.07 6.98 6.61 5.88 5.23 4.80 4.43 4.18 3.90 3.73 3.69 3.68 3.64 3.46 3.28 3.32 3.39 3.37 3.36 3.35 3.19 3.18 3.16 3.08 2.96 2.84 2.77 2.72 2.57 2.54 2.51 2.54 2.59 2.70
3.07 3.62 3.99 4.33 5.05 5.73 6.23 6.60 6.88 6.88 6.71 6.08 5.34 4.77 4.36 4.04 3.77 3.49 3.34 3.24 3.23 3.15 2.98 2.85 2.84 2.85 2.87 2.90 3.01 3.02 2.96 2.88 2.82 2.88 2.70 2.63 2.64 2.51 2.50 2.46 2.39 2.48 2.60